Location: Wien
(48.2082°N, 16.3738°E)
Time: 11:32:38
(UTC+01:00)

Altair - All Passes

Search period start: 22 February 2024 00:00
Search period end: 03 March 2024 00:00
Orbit: 1501 x 1682 km, 47.2° (Epoch: 21 February)

Date Brightness Start Highest point End Pass type
(mag) Time Alt. Az. Time Alt. Az. Time Alt. Az.
22 Feb - 08:58:07 10° S 09:04:53 24° SE 09:11:46 10° E daylight
22 Feb - 10:59:06 10° SW 11:08:05 59° SSE 11:17:22 10° ENE daylight
22 Feb - 13:03:08 10° W 13:12:30 85° S 13:22:16 10° E daylight
22 Feb - 15:07:45 10° W 15:17:11 72° SSW 15:27:00 10° ESE daylight
22 Feb - 17:12:37 10° WNW 17:21:02 36° SW 17:29:43 10° SSE daylight
23 Feb - 08:33:27 10° S 08:39:51 22° SE 08:46:20 10° E daylight
23 Feb - 10:34:02 10° SW 10:42:57 56° SSE 10:52:08 10° ENE daylight
23 Feb - 12:37:57 10° W 12:47:17 85° S 12:57:00 10° E daylight
23 Feb - 14:42:34 10° W 14:52:00 74° SSW 15:01:48 10° ESE daylight
23 Feb - 16:47:22 10° WNW 16:55:55 38° SW 17:04:45 10° SSE daylight
23 Feb - 18:57:37 10° WSW 18:58:30 10° WSW 18:59:23 10° SW visible
24 Feb - 08:08:51 10° S 08:14:49 20° SE 08:20:51 10° E daylight
24 Feb - 10:08:59 10° SW 10:17:49 54° SSE 10:26:53 10° ENE daylight
24 Feb - 12:12:46 10° WSW 12:22:05 84° S 12:31:45 10° E daylight
24 Feb - 14:17:23 10° W 14:26:48 76° SSW 14:36:34 10° ESE daylight
24 Feb - 16:22:07 10° WNW 16:30:47 40° SW 16:39:45 10° SSE daylight
24 Feb - 18:30:29 10° WSW 18:33:29 12° WSW 18:36:31 10° SW visible
25 Feb - 07:44:18 10° SSE 07:49:48 18° SE 07:55:19 10° E daylight
25 Feb - 09:43:57 10° SW 09:52:41 51° SSE 10:01:39 10° ENE daylight
25 Feb - 11:47:36 10° WSW 11:56:53 83° S 12:06:30 10° E daylight
25 Feb - 13:52:12 10° W 14:01:35 78° SSW 14:11:21 10° ESE daylight
25 Feb - 15:56:54 10° WNW 16:05:40 43° SW 16:14:44 10° SSE daylight
25 Feb - 18:04:23 10° W 18:08:27 13° SW 18:12:35 10° SSW visible
26 Feb - 07:19:52 10° SSE 07:24:47 16° SE 07:29:42 10° E daylight
26 Feb - 09:18:56 10° SW 09:27:34 48° SE 09:36:24 10° ENE daylight
26 Feb - 11:22:26 10° WSW 11:31:41 81° S 11:41:15 10° E daylight
26 Feb - 13:27:01 10° W 13:36:23 79° SSW 13:46:08 10° ESE daylight
26 Feb - 15:31:41 10° WNW 15:40:31 46° SW 15:49:41 10° SSE daylight
26 Feb - 17:38:35 10° W 17:43:25 15° SW 17:48:20 10° SSW daylight
27 Feb - 06:55:35 10° SSE 06:59:46 14° SE 07:03:58 10° E daylight
27 Feb - 08:53:56 10° SSW 09:02:28 45° SE 09:11:09 10° ENE daylight
27 Feb - 10:57:16 10° WSW 11:06:29 80° SSE 11:16:01 10° E daylight
27 Feb - 13:01:50 10° W 13:11:11 81° SSW 13:20:54 10° ESE daylight
27 Feb - 15:06:28 10° WNW 15:15:23 48° SW 15:24:38 10° SE daylight
27 Feb - 17:12:55 10° W 17:18:23 17° SW 17:23:55 10° SSW daylight
28 Feb - 06:31:32 10° SE 06:34:46 12° ESE 06:38:01 10° ESE daylight
28 Feb - 08:28:58 10° SSW 08:37:22 42° SE 08:45:54 10° ENE daylight
28 Feb - 10:32:06 10° WSW 10:41:18 78° SSE 10:50:47 10° E daylight
28 Feb - 12:36:39 10° W 12:45:59 82° S 12:55:40 10° ESE daylight
28 Feb - 14:41:16 10° WNW 14:50:15 51° SSW 14:59:33 10° SE daylight
28 Feb - 16:47:22 10° W 16:53:19 18° SW 16:59:24 10° SSW daylight
29 Feb - 06:08:05 10° SE 06:09:46 11° ESE 06:11:28 10° ESE visible
29 Feb - 08:04:01 10° SSW 08:12:16 39° SE 08:20:38 10° ENE daylight
29 Feb - 10:06:57 10° WSW 10:16:06 76° SSE 10:25:33 10° E daylight
29 Feb - 12:11:27 10° W 12:20:46 83° S 12:30:25 10° ESE daylight
29 Feb - 14:16:04 10° WNW 14:25:06 54° SSW 14:34:27 10° SE daylight
29 Feb - 16:21:53 10° W 16:28:16 20° SW 16:34:48 10° S daylight
01 Mar - 07:39:05 10° SSW 07:47:11 37° SE 07:55:22 10° ENE daylight
01 Mar - 09:41:48 10° WSW 09:50:56 74° SSE 10:00:19 10° E daylight
01 Mar - 11:46:16 10° W 11:55:34 84° S 12:05:11 10° E daylight
01 Mar - 13:50:53 10° WNW 13:59:56 56° SSW 14:09:20 10° SE daylight
01 Mar - 15:56:28 10° W 16:03:12 22° SW 16:10:07 10° S daylight
02 Mar - 07:14:10 10° SSW 07:22:06 34° SE 07:30:05 10° ENE daylight
02 Mar - 09:16:40 10° WSW 09:25:46 72° SSE 09:35:05 10° E daylight
02 Mar - 11:21:06 10° W 11:30:21 85° S 11:39:56 10° E daylight
02 Mar - 13:25:41 10° WNW 13:34:47 59° SSW 13:44:12 10° SE daylight
02 Mar - 15:31:05 10° W 15:38:08 24° SW 15:45:23 10° S daylight
